This demonstration page uses our WeatherBlox Daily Observations layout. Learn more.

Left ArrowRight Arrow

39.51506, -84.39828

Hourly Observations for February 26, 2020

Temp ( °F °C ) Dew Point ( °F °C ) Humidity (%) Winds ( mph kmh ) Pressure ( in mb ) Visibility ( mi km ) Precip ( " mm )
12:15 am 00:15 Cloudy with Mist and Fog 38 3.1 37 2.6 97 97 N 7 11 29.92 1013 7 11.26538 0 0
12:35 am 00:35 Cloudy with Mist and Fog 38 3.1 37 2.6 97 97 N 6 9 29.92 1013 7 11.26538 0 0
12:55 am 00:55 Cloudy with Mist and Fog 37 3 37 2.6 97 97 N 7 11 29.93 1013 7 11.26538 0 0
1:15 am 01:15 Cloudy with Mist and Fog 37 3 37 2.6 97 97 N 6 9 29.93 1013 5 8.0467 0 0
1:35 am 01:35 Cloudy with Mist and Fog 37 2.9 37 2.5 97 97 N 6 9 29.93 1013 4 6.43736 0 0
1:55 am 01:55 Cloudy with Mist and Fog 37 2.8 37 2.5 98 98 N 6 9 29.92 1013 4 6.43736 0 0
2:15 am 02:15 Cloudy with Mist and Fog 37 2.7 36 2.4 98 98 N 6 9 29.92 1013 5 8.0467 0 0
2:35 am 02:35 Cloudy with Mist and Fog 37 2.6 36 2.3 98 98 N 5 7 29.93 1013 4 6.43736 0 0
2:55 am 02:55 Cloudy with Mist and Fog 37 2.5 36 2.1 97 97 N 7 11 29.92 1013 4 6.43736 0 0
3:15 am 03:15 Cloudy with Mist and Fog 36 2.4 36 2.1 98 98 N 3 6 29.92 1013 3 4.82802 0 0
3:35 am 03:35 Cloudy with Mist and Fog 36 2.3 36 2 98 98 N 5 7 29.92 1013 2.5 4.02335 0 0
3:55 am 03:55 Cloudy with Mist and Fog 36 2.3 36 2.1 99 99 N 5 7 29.92 1013 2 3.21868 0 0
4:15 am 04:15 Cloudy with Mist and Fog 36 2.2 36 2 99 99 N 5 7 29.92 1013 2 3.21868 0 0
4:35 am 04:35 Cloudy with Mist and Fog 36 2.2 36 2 99 99 N 5 7 29.92 1013 2 3.21868 0 0
4:55 am 04:55 Cloudy with Mist and Fog 36 2.2 36 2 99 99 N 6 9 29.92 1013 2.5 4.02335 0 0
5:15 am 05:15 Cloudy with Mist and Fog 36 2.2 36 2 99 99 NNE 5 7 29.92 1013 3 4.82802 0 0
5:35 am 05:35 Cloudy with Mist and Fog 36 2.1 35 1.9 99 99 N 5 7 29.92 1013 4 6.43736 0 0
5:55 am 05:55 Cloudy with Mist and Fog 36 2 35 1.7 98 98 N 5 7 29.92 1013 3 4.82802 0 0
6:15 am 06:15 Cloudy with Mist and Fog 36 2 35 1.8 99 99 NNE 6 9 29.89 1012 2.5 4.02335 0 0
6:35 am 06:35 Cloudy with Mist and Fog 36 2 35 1.8 99 99 NNW 5 7 29.91 1013 2.5 4.02335 0 0
6:55 am 06:55 Cloudy with Mist and Fog 35 1.9 35 1.8 99 99 N 3 6 29.91 1013 2.5 4.02335 0 0
7:15 am 07:15 Cloudy with Mist and Fog 35 1.8 35 1.6 99 99 N 5 7 29.91 1013 2 3.21868 0 0
7:35 am 07:35 Cloudy with Mist and Fog 35 1.7 35 1.6 99 99 N 3 6 29.92 1013 1.5 2.41401 0 0
7:55 am 07:55 Cloudy with Mist and Fog 35 1.7 35 1.6 99 99 N 5 7 29.91 1013 1.75 2.816345 0 0
8:15 am 08:15 Cloudy with Mist and Fog 35 1.7 35 1.5 99 99 N 6 9 29.91 1013 1.75 2.816345 0 0
8:35 am 08:35 Cloudy with Mist and Fog 35 1.6 35 1.4 99 99 N 6 9 29.91 1013 2 3.21868 0 0
8:55 am 08:55 Cloudy with Mist and Fog 35 1.6 35 1.4 99 99 N 6 9 29.91 1013 1.75 2.816345 0 0
9:15 am 09:15 Cloudy with Light Rain 35 1.6 35 1.4 99 99 N 6 9 29.9 1013 1.25 2.011675 0 0
9:35 am 09:35 Cloudy with Light Rain 35 1.6 35 1.4 99 99 N 5 7 29.9 1013 2 3.21868 0 0
9:55 am 09:55 Cloudy with Light Rain 35 1.6 34 1.3 98 98 NNE 6 9 29.89 1012 3 4.82802 0 0
10:15 am 10:15 Cloudy with Light Snow 35 1.4 34 1.2 99 99 NNE 8 13 29.88 1012 3.5 5.63269 0 0
10:35 am 10:35 Cloudy with Light Wintry Mix 35 1.4 34 1.1 98 98 NNE 6 9 29.87 1012 4 6.43736 0 0
10:55 am 10:55 Cloudy with Light Snow 35 1.4 34 1 97 97 N 5 7 29.85 1011 3.5 5.63269 0 0
11:15 am 11:15 Cloudy with Light Snow 35 1.4 34 0.9 97 97 Calm 29.87 1012 4 6.43736 0 0
11:35 am 11:35 Cloudy with Light Snow 34 0.9 33 0.5 97 97 Calm 29.88 1012 2 3.21868 0 0
11:55 am 11:55 Cloudy with Light Snow 33 0.6 33 0.3 98 98 Calm 29.87 1012 1 1.60934 0 0
12:15 pm 12:15 Cloudy with Light Snow 33 0.5 33 0.3 99 99 Calm 29.88 1012 1.25 2.011675 0 0
12:35 pm 12:35 Cloudy with Light Snow 33 0.5 32 0.2 98 98 Calm 29.87 1012 1.25 2.011675 0 0
12:55 pm 12:55 Cloudy with Light Snow 33 0.8 33 0.5 98 98 Calm 29.87 1012 1.5 2.41401 0 0
1:15 pm 13:15 Cloudy with Light Snow 34 1.1 33 0.7 97 97 N 3 6 29.85 1011 2 3.21868 0 0
1:35 pm 13:35 Cloudy with Light Snow 35 1.4 34 0.9 97 97 NNW 6 9 29.83 1010 3.5 5.63269 0 0
1:55 pm 13:55 Cloudy with Light Rain 35 1.5 33 0.8 95 95 NW 7 11 29.84 1011 10 16.0934 0 0
2:15 pm 14:15 Cloudy with Light Snow 34 1.3 33 0.5 94 94 WNW 5 7 29.84 1011 2.5 4.02335 0 0
2:35 pm 14:35 Cloudy with Light Snow 34 1.2 33 0.3 94 94 NW 8 13 29.83 1010 1.75 2.816345 0 0
2:55 pm 14:55 Cloudy with Light Snow 34 1 32 0.2 94 94 WNW 8 13 29.84 1011 1.5 2.41401 0 0
3:15 pm 15:15 Cloudy with Light Snow 34 1 32 0.2 94 94 WNW 7 11 29.85 1011 2 3.21868 0 0
3:35 pm 15:35 Cloudy with Light Snow 34 1 32 -0.1 92 92 WNW 9 15 29.86 1011 2 3.21868 0 0
3:55 pm 15:55 Cloudy with Light Snow 34 1.2 32 0.1 92 92 WNW 8 13 29.87 1012 2.5 4.02335 0 0
4:15 pm 16:15 Cloudy with Light Snow 35 1.5 33 0.4 92 92 WNW 10 17 29.87 1012 3 4.82802 0 0
4:35 pm 16:35 Cloudy with Light Snow 34 1.2 31 -0.3 90 90 WNW 12 19 29.88 1012 7 11.26538 0 0
4:55 pm 16:55 Cloudy with Light Snow 33 0.6 31 -0.5 92 92 WNW 13 20 29.88 1012 2 3.21868 0 0
5:15 pm 17:15 Cloudy with Light Snow 33 0.6 31 -0.8 90 90 WNW 10 17 29.89 1012 7 11.26538 0 0
5:35 pm 17:35 Cloudy with Light Snow 33 0.3 30 -1.1 90 90 WNW 12 19 29.9 1013 4 6.43736 0 0
5:55 pm 17:55 Cloudy with Light Snow 32 0.1 29 -1.5 89 89 WNW 15 24 29.91 1013 7 11.26538 0 0
6:15 pm 18:15 Cloudy with Light Snow 32 -0.1 29 -1.7 89 89 WNW 10 17 29.93 1013 3.5 5.63269 0 0
6:35 pm 18:35 Cloudy with Light Snow 31 -0.4 29 -1.8 90 90 WNW 8 13 29.94 1014 1.75 2.816345 0 0
6:55 pm 18:55 Cloudy with Light Snow 31 -0.6 28 -2.1 90 90 WNW 13 20 29.95 1014 3.5 5.63269 0 0
7:15 pm 19:15 Cloudy with Light Snow 30 -1 27 -2.8 88 88 NW 13 20 29.96 1014 3 4.82802 0 0
7:35 pm 19:35 Cloudy with Light Snow 30 -1.2 27 -2.8 89 89 WNW 12 19 29.98 1015 3.5 5.63269 0 0
7:55 pm 19:55 Cloudy with Light Snow 29 -1.4 25 -3.9 83 83 NW 15 24 29.98 1015 7 11.26538 0 0
8:15 pm 20:15 Cloudy with Light Snow 29 -1.5 26 -3.5 86 86 WNW 12 19 29.99 1016 7 11.26538 0 0
8:35 pm 20:35 Cloudy with Light Snow 29 -1.5 26 -3.2 88 88 WNW 9 15 29.99 1016 5 8.0467 0 0
8:55 pm 20:55 Cloudy with Light Snow 29 -1.6 26 -3.5 87 87 WNW 13 20 30 1016 5 8.0467 0 0
9:15 pm 21:15 Cloudy with Light Snow 29 -1.6 26 -3.6 86 86 NW 10 17 30.01 1016 5 8.0467 0 0
9:35 pm 21:35 Cloudy with Light Snow 29 -1.8 26 -3.6 88 88 NW 9 15 30.02 1017 5 8.0467 0 0
9:55 pm 21:55 Cloudy with Light Snow 29 -1.7 24 -4.2 83 83 NW 12 19 30.03 1017 7 11.26538 0 0
10:15 pm 22:15 Cloudy with Light Snow 29 -1.8 25 -4.1 84 84 NW 14 22 30.03 1017 7 11.26538 0 0
10:35 pm 22:35 Partly Cloudy 29 -1.9 23 -4.9 80 80 NW 12 19 30.04 1017 10 16.0934 0 0
10:55 pm 22:55 Cloudy with Light Snow 29 -1.9 24 -4.7 81 81 WNW 9 15 30.04 1017 10 16.0934 0 0
11:15 pm 23:15 Cloudy with Light Snow 29 -1.8 24 -4.2 84 84 WNW 13 20 30.05 1018 7 11.26538 0 0
11:35 pm 23:35 Cloudy with Light Snow 29 -1.8 24 -4.2 84 84 NW 10 17 30.05 1018 4 6.43736 0 0
11:55 pm 23:55 Cloudy with Light Snow 29 -1.9 24 -4.7 81 81 WNW 16 26 30.05 1018 10 16.0934 0 0

Powered by AerisWeather